Погода в Догондучи

Нигер     13°38′09″N   4°01′51″E
темп.,
°C
ветер,
м/с
пор.,
м/с
влажн.,
%
обл.,
%
осадки,
мм/ч
давл.,
гПа
погр.,
м
12 мая, ср
ср1201:00+33юз452479 0.0 100770
04:00+31зюз44305 0.0 100752
07:00+30ю34295 0.0 100954
10:00+37юз562267 0.0 1010951
13:00+42юз35135 0.0 10073530
16:00+43вюв35917 0.0 10045072
19:00+39всв441134 0.0 100429
22:00+36юв441325 0.0 100751
13 мая, чт
чт1301:00+32ююз5102481 0.0 1007163
04:00+30юз47330 0.0 1006114
07:00+29юз410385 0.0 1008241
10:00+36юз78281 0.0 10091105
13:00+41юз64195 0.0 10072231
16:00+43ю361280 0.0 10035040
19:00+39ююв8111622 0.0 1004340
22:00+36ю582136 0.0 1006129
14 мая, пт
пт1401:00+34ю452396 0.0 100674
04:00+32ююз712385 0.0 1006422
07:00+30ююз411371 0.0 1007333
10:00+37ююз78282 0.0 10091073
13:00+41юз45185 0.0 10062437
16:00+43юв471273 0.0 10034958
19:00+37ююв692099 0.0 1004216
22:00+35вюв611231 0.0 1007193
15 мая, сб
сб1501:00+32юз61030100 0.0 1006200
04:00+31ююз61241100 0.0 1007422
07:00+30ююз41043100 0.0 1008358
10:00+36ююз6729100 0.0 10101219
13:00+40зюз33195 0.0 10072730
16:00+42ссв06158 0.0 10044782
19:00+38всв33166 0.0 100414
22:00+38св451899 0.0 100675
16 мая, вс
вс1601:00+33ююз473134 0.0 1006152
04:00+31ююз7144145 0.0 1006367
07:00+29ю4948100 0.0 1009341
10:00+36юз773350 0.0 10101107
13:00+40зюз532443 0.0 10072182
16:00+42вюв17157 0.0 10045110
19:00+39вюв3416100 0.0 100439
22:00+35ю510240 0.0 1006183